Weather History for Carbondale, IL

Change the Weather History Date:

Tuesday, May 1, 2012

  Actual Average Record
Temperature  
Mean Temperature 73 °F -  
Max Temperature 86 °F 72 °F 88 °F (1926)
Min Temperature 60 °F 49 °F 30 °F (1963)
Cooling Degree Days 8    
Growing Degree Days 23 (Base 50)    
Moisture  
Dew Point 63 °F    
Average Humidity 77    
Maximum Humidity 100    
Minimum Humidity 46    
Precipitation  
Precipitation 0.01 in - - ()
Sea Level Pressure  
Sea Level Pressure 29.92 in    
Wind  
Wind Speed 5 mph (South)    
Max Wind Speed 23 mph    
Max Gust Speed 32 mph    
Visibility 7 miles    
Events Thunderstorm    
Averages and records for this station are not official NWS values.
T = Trace of Precipitation, MM = Missing Value Source: NWS Daily Summary

Daily Weather History Graph

Daily Weather History Graph

Search for Another Location

Airport:

Trip Planner

Search our weather history database for the weather conditions in past years. The results will help you decide how hot, cold, wet, or windy it might be!

Date:

Astronomy

May. 01, 2012 Rise Set
Actual Time 6:00 AM CDT 7:47 PM CDT
Civil Twilight 5:32 AM CDT 8:16 PM CDT
Nautical Twilight 4:58 AM CDT 8:50 PM CDT
Astronomical Twilight 4:21 AM CDT 9:27 PM CDT
Moon 2:56 PM CDT (5/1) 2:52 AM CDT (5/1)
Length of Visible Light 14h 43m
Length of Day
13h 47m
Waxing Gibbous, 74% of the Moon is Illuminated
May 1
Waxing Gibbous
May 5
Full
May 12
Last Quarter
May 20
New
May 28
First Quarter

Hourly Weather History & Observations

Time (CDT) Temp. Heat Index Dew Point Humidity Pressure Visibility Wind Dir Wind Speed Gust Speed Precip Events Conditions
12:52 AM 61.0 °F - 61.0 °F 100% 29.99 in 1.0 mi Calm Calm - N/A   Clear
1:06 AM 62.6 °F - 60.8 °F 94% 30.00 in 2.5 mi Calm Calm - N/A   Clear
1:30 AM 60.8 °F - 60.8 °F 100% 29.99 in 4.0 mi Calm Calm - N/A   Clear
1:52 AM 62.1 °F - 61.0 °F 96% 29.99 in 4.0 mi Calm Calm - N/A   Clear
2:52 AM 62.1 °F - 61.0 °F 96% 29.97 in 3.0 mi Calm Calm - 0.01 in   Scattered Clouds
3:52 AM 63.0 °F - 62.1 °F 97% 29.97 in 4.0 mi ESE 3.5 mph - N/A   Overcast
4:52 AM 64.9 °F - 63.0 °F 93% 29.96 in 6.0 mi SE 4.6 mph - N/A   Overcast
5:52 AM 64.9 °F - 63.0 °F 93% 29.96 in 5.0 mi ESE 4.6 mph - N/A   Overcast
6:52 AM 64.9 °F - 64.0 °F 97% 29.95 in 4.0 mi SE 5.8 mph - N/A   Mostly Cloudy
6:58 AM 64.4 °F - 64.4 °F 100% 29.96 in 3.0 mi SSE 4.6 mph - N/A Thunderstorm Mostly Cloudy
7:18 AM 66.2 °F - 64.4 °F 94% 29.96 in 3.0 mi SSE 4.6 mph - 0.00 in   Overcast
7:52 AM 69.1 °F - 66.0 °F 90% 29.94 in 5.0 mi SSE 10.4 mph - 0.00 in   Mostly Cloudy
8:52 AM 72.0 °F - 66.9 °F 84% 29.94 in 9.0 mi South 11.5 mph - N/A   Clear
11:52 AM 81.0 °F 83.0 °F 66.0 °F 60% 29.91 in 10.0 mi SSW 15.0 mph 21.9 mph 0.00 in   Partly Cloudy
12:52 PM 82.9 °F 84.6 °F 64.9 °F 54% 29.90 in 10.0 mi SSW 13.8 mph 24.2 mph N/A   Scattered Clouds
1:52 PM 82.9 °F 84.4 °F 64.0 °F 53% 29.89 in 10.0 mi SW 20.7 mph 27.6 mph N/A   Clear
3:52 PM 86.0 °F 86.8 °F 63.0 °F 46% 29.85 in 10.0 mi SSW 23.0 mph 32.2 mph N/A   Partly Cloudy
4:52 PM 82.9 °F 83.7 °F 62.1 °F 49% 29.85 in 10.0 mi SW 10.4 mph - N/A   Clear
5:52 PM 84.0 °F 85.4 °F 64.0 °F 51% 29.85 in 10.0 mi SSW 13.8 mph 18.4 mph N/A   Clear
6:52 PM 82.0 °F 83.1 °F 63.0 °F 52% 29.84 in 10.0 mi SSW 8.1 mph - N/A   Clear
7:52 PM 78.1 °F - 62.1 °F 58% 29.85 in 10.0 mi SSW 9.2 mph - N/A   Clear
8:52 PM 73.9 °F - 61.0 °F 64% 29.87 in 10.0 mi SSE 8.1 mph - N/A   Clear
9:52 PM 72.0 °F - 61.0 °F 68% 29.88 in 10.0 mi South 6.9 mph - N/A   Clear
10:52 PM 71.1 °F - 62.1 °F 73% 29.88 in 10.0 mi South 8.1 mph - N/A   Clear
11:52 PM 73.9 °F - 63.0 °F 68% 29.88 in 10.0 mi SSW 10.4 mph - N/A   Clear